Location: Glens Falls
(43.3090°N, 73.6440°W)
Time: 00:58:24
(UTC-05:00)

Daily predictions for brighter satellites

Satellite Brightness Start Highest point End
(mag) Time Altitude Azimuth Time Altitude Azimuth Time Altitude Azimuth
SL-16 R/B 4.3 03:38:08 18° NNE 03:38:08 18° NNE 03:39:30 10° NNE
NOSS 3-1 (A) 4.5 03:45:53 48° N 03:47:32 56° NE 03:55:43 10° SE
Cosmos 2369 Rocket 3.6 03:51:42 29° NNE 03:52:51 32° NE 03:57:49 10° ESE
CZ-4B R/B 4.0 03:51:23 10° NNE 03:56:56 51° E 03:58:56 35° SSE
Atlas Centaur 2 4.5 04:03:42 19° S 04:03:42 19° S 04:07:56 10° SSE
Cosmos 968 Rocket 4.2 04:04:08 51° E 04:04:08 51° E 04:08:37 10° SE
Lacrosse 5 rocket 3.7 04:07:16 20° NNE 04:07:16 20° NNE 04:08:49 10° NE
Cosmos 1943 Rocket 3.7 04:12:50 19° N 04:15:58 32° NE 04:20:59 10° ESE
Cosmos 1782 4.1 04:28:28 35° SE 04:28:28 35° SE 04:31:00 10° SSE
COSMO-SKYMED 1 4.0 04:28:09 10° SE 04:32:06 36° ENE 04:35:21 14° N
Cosmos 1900 4.3 04:33:01 78° N 04:33:01 78° N 04:37:53 10° NNE
ATLAS 5 CENTAUR R/B 2.4 04:31:25 38° S 04:32:48 52° ESE 04:37:37 10° NE
PAYLOAD B 4.2 04:31:20 10° N 04:36:17 61° NW 04:36:17 61° NW
Cosmos 1943 3.8 04:33:40 10° S 04:39:14 57° ESE 04:44:47 10° NNE
GEOS 3 Rocket 4.3 04:35:58 10° NNE 04:40:12 40° NNW 04:40:12 40° NNW
EO 1 Del DPAF 4.4 04:38:33 10° SE 04:42:10 42° ENE 04:43:50 26° NNE
Okean 1-7 3.1 04:46:21 41° N 04:47:49 76° E 04:52:09 10° SSE
CZ-4B DEB 4.3 04:44:00 10° N 04:49:25 54° WNW 04:49:25 54° WNW
Cosmos 1447 Rocket 4.4 04:45:39 10° SSW 04:51:54 64° W 04:58:08 10° N
IDEFIX/ARIANE 42P 3.8 04:48:10 10° NNE 04:53:04 41° E 04:57:55 10° SSE
Meteor 2-6 Rocket 4.3 04:47:38 10° N 04:53:34 87° E 04:59:32 10° S
CZ-2C R/B 4.2 04:51:28 10° NNE 04:56:07 33° E 05:00:38 10° SSE
IRS-1C Rocket 4.1 04:52:51 10° N 04:58:00 56° WNW 05:03:07 10° SSW
Cosmos 2263 4.3 04:57:11 20° NNW 05:01:17 77° ENE 05:07:04 10° SSE
IRS-P2 Rocket 4.4 04:57:07 10° N 05:02:20 68° WNW 05:07:29 10° SSW
Genesis I 3.6 05:00:41 23° SSW 05:03:00 63° ESE 05:06:55 10° NE
Cosmos 1862 3.6 05:00:57 10° S 05:04:51 65° E 05:08:49 10° NNE
USA 32 4.4 05:02:45 10° SSW 05:08:16 39° WNW 05:12:35 10° N
NOSS 3-1 (C) 4.4 05:08:24 30° WNW 05:11:45 44° WSW 05:19:37 10° S
Cosmos 1733 Rocket 4.4 05:10:57 10° SSE 05:15:00 41° E 05:19:08 10° NNE
Cosmos 1606 4.1 05:18:20 23° SW 05:18:20 23° SW 05:20:08 10° SSW
Cosmos 1441 Rocket 3.0 05:16:44 35° NNW 05:18:11 67° W 05:21:52 10° S
SL-16 R/B 3.9 05:20:04 16° NNW 05:20:04 16° NNW 05:22:22 10° N
SKYMED 2 3.4 05:15:43 10° S 05:20:01 70° WSW 05:23:56 13° NNW
Cosmos 1603 4.2 05:21:24 27° W 05:23:34 37° WNW 05:28:51 10° N
ATLAS 2AS CENTAUR R/B 3.8 05:17:12 10° NNW 05:24:56 47° NE 05:32:08 10° ESE
Abrixas rocket 2.1 05:24:20 51° NW 05:25:00 77° NNE 05:28:12 10° ESE
Cosmos 1464 Rocket 3.9 05:19:27 10° NNW 05:25:42 70° W 05:32:00 10° S
SL-8 R/B 3.9 05:24:21 32° WNW 05:26:18 55° NNW 05:31:01 10° ENE
Meteor 1-27 Rocket 3.7 05:24:42 10° NNW 05:30:32 74° W 05:36:11 10° S
CZ-2C R/B 4.5 05:27:04 10° SSW 05:30:54 28° W 05:31:17 27° W
Cosmos 1777 Rocket 4.0 05:27:24 16° NNW 05:31:33 59° WSW 05:36:38 10° S
Gbstr 26 Del rocket 4.1 05:29:51 21° NNW 05:31:52 31° NNE 05:35:24 10° ENE
Cosmos 2369 Rocket 2.6 05:33:34 20° NW 05:36:56 40° WSW 05:42:06 10° S
CZ-4B R/B 4.2 05:32:36 10° N 05:37:08 25° WNW 05:40:48 14° WSW
Intercosmos 25 4.3 05:38:43 25° WNW 05:39:28 27° W 05:43:31 10° SSW
Cosmos 1818 3.9 05:35:54 11° NNW 05:41:08 67° NE 05:46:32 10° SE
CZ-3B R/B 1.8 05:41:43 50° NNW 05:41:43 50° NNW 05:43:18 10° NE
Lacrosse 4 Rocket 1.4 05:38:39 10° SSW 05:43:00 85° WNW 05:47:17 10° NNE
Lacrosse 5 rocket 3.2 05:42:58 16° NW 05:44:25 19° NNW 05:47:42 10° NNE
Cosmos 371 Rocket 4.3 05:39:57 10° S 05:44:36 49° ESE 05:49:16 10° NNE
Tsikada Rocket 4.0 05:38:40 10° S 05:44:56 87° E 05:51:11 10° N
CZ-4 R/B 3.8 05:44:13 10° NE 05:47:34 26° E 05:50:56 10° SSE
MSX 4.0 05:43:08 10° NNE 05:48:56 82° ESE 05:54:42 10° SSW
PAYLOAD A 4.1 05:45:01 10° N 05:50:13 58° WNW 05:55:31 10° SSW
Okean 3 4.1 05:47:15 10° N 05:51:25 57° E 05:55:36 10° SSE
Ariane Rocket 4.4 05:46:39 10° NNE 05:51:28 42° E 05:56:13 10° S
Cosmos 405 Rocket 4.0 05:53:26 19° WNW 05:54:06 20° W 05:56:52 10° SW
NOAA 6 4.4 05:49:35 10° N 05:54:19 39° WNW 05:59:02 10° SW
Aureole 3 2.9 05:51:59 10° SSW 05:54:50 44° WNW 05:57:48 10° N
Okean-O 3.3 05:53:54 10° N 05:57:50 32° WNW 06:01:46 10° SW
Cosmos 1867 4.5 05:54:05 10° SSW 05:59:19 53° ESE 06:04:38 10° NE
PSLV R/B 4.0 05:57:13 16° WSW 05:59:24 38° SSW 06:02:22 10° SE
Cosmos 1943 Rocket 2.6 05:54:30 10° NW 05:59:49 42° WSW 06:05:05 10° S
NOSS 2-1 (C) 4.5 05:58:44 10° SSW 06:02:15 44° ESE 06:06:06 10° NE
NOSS 2-1 (D) 4.4 05:58:56 10° SSW 06:02:27 46° ESE 06:06:20 10° NE
COSMO-SKYMED 1 3.8 06:05:01 10° SW 06:08:21 22° W 06:11:42 10° NW
Cosmos 1656 Rocket 3.6 06:02:58 10° NNW 06:08:26 82° WSW 06:13:50 10° SSE
Cosmos 332 Rocket 3.7 06:06:08 10° SSW 06:10:55 80° WNW 06:15:46 10° NNE
NOSS 2 (F) 4.5 06:10:04 10° NW 06:12:51 85° WSW 06:16:02 10° SE
COSMOS 2441 4.4 06:08:31 10° N 06:13:22 63° WNW 06:18:10 10° SSW
COSMOS 2406 4.2 06:08:21 10° S 06:13:56 54° ESE 06:19:34 10° NNE
CSL-04 Rocket 4.0 06:09:05 10° NNE 06:14:37 77° ESE 06:20:10 10° S
Cosmos 1937 Rocket 4.3 06:11:15 10° NNW 06:16:17 52° ENE 06:21:17 10° SE
SJ-7 4.3 06:13:28 10° NNE 06:17:29 87° WNW 06:21:28 10° SSW
Cosmos 1674 Rocket 3.7 06:13:27 10° NNW 06:17:40 51° W 06:21:51 10° S
ATLAS 5 CENTAUR R/B 2.9 06:13:48 10° W 06:17:47 26° NW 06:22:07 10° NNE
TIMED 4.5 06:15:20 10° NNW 06:19:43 73° WSW 06:24:04 10° SSE
Thor Agena Rocket 3.7 06:16:23 10° S 06:21:18 51° W 06:26:14 10° NNW
SJ-12 4.2 06:18:25 10° N 06:22:21 44° WNW 06:26:14 10° SW
Cosmos 1943 4.2 06:19:03 10° WSW 06:23:39 25° NW 06:28:16 10° N
IRAS Rocket 4.2 06:20:35 10° NNE 06:26:06 84° WNW 06:31:36 10° SSW
Cosmos 1633 2.8 06:25:09 10° S 06:28:42 74° E 06:32:20 10° NNE
NOSS 2-1 (E) 3.4 06:25:46 10° SSW 06:29:29 80° SE 06:33:42 10° NE
